User: anonymous   Login
Location: Castelbiague
(43.0361°N, 0.9246°E)
Time: 21:52:58
(UTC+00:00)
Language:

deb Delta 139 - Orbit

View from above orbital plane
View from above orbital plane
View from above satellite
View from above satellite

Ground track
Ground track

The orbit data is extracted from the following two-line orbital elements,

1 14458U 78026FY  22021.86340964  .00000067  00000-0  66696-4 0  9992
2 14458  98.7707 338.7036 0069186 288.8254 125.5990 14.05350978984845
Epoch (UTC): 21 January 2022 20:43:18
Eccentricity: 0.0069186
inclination: 98.7707°
perigee height: 825 km
apogee height: 925 km
right ascension of ascending node: 338.7036°
argument of perigee: 288.8254°
revolutions per day: 14.05350978
mean anomaly at epoch: 125.5990°
orbit number at epoch: 98484

The dashed part of the orbit path shows where the satellite is in the earth's shadow,  

DLR